Flag for Kazakhstan Weather past 2 weeks in Almaty, Kazakhstan

Now
75 °F

Scattered clouds.


Feels Like: 77 °F
Forecast: 53 / 83 °F
Wind: 6 mph from North

Location: Almaty Airport

Current Time: Aug 28, 2014 at 11:47:30 AM

Latest Report: Aug 28, 2014 at 11:00 AM


Visibility: N/A

Pressure: 29.98 "Hg

Humidity: 29%

Dew point: 41 °F

Location of AlmatyLocation

Historic Weather in Almaty — Graph

°F

Almaty temperature yesterday

Maximum temperature yesterday: 81 °F (at 4:00 PM)
Minimum temperature yesterday: 55 °F (at 6:00 AM)
Average temperature yesterday: 69 °F

Past Weeks' High & Low Weather Summary

 TemperatureHumidityPressure
High99 °F (Aug 14, 2:30 PM)88% (Aug 16, 4:00 AM)30.15 "Hg (Aug 16, 4:00 AM)
Low50 °F (Aug 20, 6:00 AM)7% (Aug 13, 2:00 PM)29.62 "Hg (Aug 14, 2:30 PM)
Average74 °F38%29.90 "Hg
* Reported Aug 13 10:00 AM — Aug 28 10:30 AM, Almaty, Weather by CustomWeather, © 2014

Note: Actual official high and low records may vary slightly from our data, if they occured in-between our weather recording intervals... More about our weather records

Advertising

Almaty weather history for previous 24 hours

 ConditionsComfort  
Time TempWeatherWind HumidityBarometerVisibility
10:30 AM
Aug 28
73 °FScattered clouds.6 mph36%29.98 "HgN/A
10:00 AM72 °FScattered clouds.6 mph38%29.98 "HgN/A
9:30 AM70 °FScattered clouds.3 mph40%29.98 "HgN/A
9:00 AM68 °FClear.6 mph40%29.98 "HgN/A
8:30 AM66 °FScattered clouds.3 mph43%29.98 "HgN/A
8:00 AM63 °FScattered clouds.3 mph56%29.98 "HgN/A
7:30 AM59 °FScattered clouds.3 mph59%29.98 "HgN/A
7:00 AM55 °FScattered clouds.3 mph67%29.98 "HgN/A
6:30 AM52 °FScattered clouds.3 mph77%29.98 "HgN/A
6:00 AM52 °FClear.3 mph77%29.98 "HgN/A
5:30 AM54 °FClear.3 mph72%29.98 "HgN/A
5:00 AM54 °FClear.3 mph72%29.98 "HgN/A
4:30 AM55 °FClear.3 mph67%29.98 "HgN/A
4:00 AM55 °FClear.3 mph67%29.98 "HgN/A
3:30 AM55 °FClear.3 mph67%29.98 "HgN/A
3:00 AM55 °FClear.3 mph67%29.98 "HgN/A
2:30 AM55 °FClear.6 mph67%29.98 "HgN/A
2:00 AM55 °FClear.3 mph67%30.01 "HgN/A
1:30 AM57 °FClear.3 mph63%30.01 "HgN/A
1:00 AM57 °FClear.3 mph67%30.01 "HgN/A
12:30 AM57 °FClear.3 mph67%30.01 "HgN/A
11:30 PM
Aug 27
61 °FClear.3 mph63%30.01 "HgN/A
11:00 PM61 °FClear.3 mph63%30.01 "HgN/A
10:30 PM63 °FClear.1 mph59%30.01 "HgN/A
10:00 PM63 °FClear.3 mph59%30.04 "HgN/A
9:00 PM68 °FClear.6 mph46%30.04 "HgN/A
8:30 PM70 °FPassing clouds.6 mph43%30.04 "HgN/A
8:00 PM70 °FPassing clouds.6 mph46%30.01 "HgN/A
7:30 PM73 °FPassing clouds.6 mph38%30.01 "HgN/A
7:00 PM77 °FPassing clouds.6 mph32%30.01 "HgN/A
6:30 PM79 °FScattered clouds.6 mph28%30.01 "HgN/A
6:00 PM79 °FScattered clouds.6 mph26%30.01 "HgN/A
5:30 PM81 °FScattered clouds.8 mph24%30.01 "HgN/A
5:00 PM81 °FScattered clouds.6 mph24%30.01 "HgN/A
4:30 PM81 °FScattered clouds.3 mph23%30.01 "HgN/A
4:00 PM81 °FScattered clouds.6 mph26%30.01 "HgN/A
3:30 PM79 °FScattered clouds.6 mph30%30.01 "HgN/A
3:00 PM79 °FScattered clouds.8 mph30%30.04 "HgN/A
2:30 PM79 °FPassing clouds.8 mph28%30.04 "HgN/A
2:00 PM77 °FClear.6 mph32%30.04 "HgN/A
1:30 PM77 °FClear.6 mph34%30.04 "HgN/A
1:00 PM77 °FClear.6 mph30%30.04 "HgN/A
12:30 PM75 °FPassing clouds.6 mph36%30.04 "HgN/A
12:00 PM75 °FPassing clouds.6 mph36%30.07 "HgN/A
11:30 AM73 °FPassing clouds.6 mph41%30.07 "HgN/A
11:00 AM72 °FClear.6 mph47%30.07 "HgN/A
Weather by CustomWeather, © 2014

See weather overviewHow to use our weather pages